Hourly Data Report for September 28, 2017

All times are specified in Local Standard Time (LST). Add 1 hour to adjust for Daylight Saving Time where and when it is observed.

KITCHENER/WATERLOO
ONTARIO

43°27'39.000" N
80°22'43.000" W
321.60 m
6144239
71368
YKF

Download Data

Hourly Data (September 2017)
Hourly Data Report for September 28, 2017
Temp Definition
°C
Dew Point Temp Definition
°C
Rel Hum Definition
%
Wind Dir Definition
10's deg

Wind Spd Definition
km/h
Visibility Definition
km
Stn Press Definition
kPa
Hmdx Definition


Wind Chill Definition


Weather Definition


TIME
00:00 Legend Double Dagger 12.4 9.4 82 33 13 16.1 97.80     LegendNANA
01:00 Legend Double Dagger 11.9 8.6 80 31 13 16.1 97.83     LegendNANA
02:00 Legend Double Dagger 12.5 8.0 74 32 18 16.1 97.82     LegendNANA
03:00 Legend Double Dagger 12.5 7.2 70 33 18 16.1 97.85     LegendNANA
04:00 Legend Double Dagger 11.9 7.5 74 33 17 16.1 97.90     LegendNANA
05:00 Legend Double Dagger 11.7 7.2 74 31 18 16.1 97.94     LegendNANA
06:00 Legend Double Dagger 10.0 7.1 82 30 13 16.1 97.95     LegendNANA
07:00 Legend Double Dagger 10.0 7.5 84 31 9 16.1 97.98     LegendNANA
08:00 Legend Double Dagger 12.0 7.3 73 32 15 16.1 98.01     LegendNANA
09:00 Legend Double Dagger 13.4 6.6 63 32 24 16.1 98.07     LegendNANA
10:00 Legend Double Dagger 15.1 7.0 58 31 18 16.1 98.06     LegendNANA
11:00 Legend Double Dagger 14.6 5.9 56 31 18 16.1 98.07     LegendNANA
12:00 Legend Double Dagger 15.8 5.8 51 29 28 16.1 98.05     LegendNANA
13:00 Legend Double Dagger 15.6 5.0 49 31 22 16.1 98.02     LegendNANA
14:00 Legend Double Dagger 15.5 5.9 52 30 26 16.1 98.00     LegendNANA
15:00 Legend Double Dagger 15.3 5.2 51 31 18 16.1 98.00     LegendNANA
16:00 Legend Double Dagger 14.8 4.6 50 31 13 16.1 98.01     LegendNANA
17:00 Legend Double Dagger 14.5 5.6 55 33 17 16.1 98.03     LegendNANA
18:00 Legend Double Dagger 12.1 6.0 66 32 8 16.1 98.02     LegendNANA
19:00 Legend Double Dagger 10.3 5.9 74 31 9 16.1 98.04     LegendNANA
20:00 Legend Double Dagger 8.9 6.7 86 28 4 16.1 98.07     LegendNANA
21:00 Legend Double Dagger 6.0 5.4 96 35 4 16.1 98.07     LegendNANA
22:00 Legend Double Dagger 5.3 4.9 97   0 16.1 98.09     LegendNANA
23:00 Legend Double Dagger 5.1 4.8 98   0 9.7 98.09     Fog

Notes on Data Quality.

Legend

  • E = Estimated
  • M = Missing
  • NA = Not Available
  • ‡ = Partner data that is not subject to review by the National Climate Archives
Date modified: